Station Historical Data
Daily Summary for May 10, 2017 Units:  English    Metric   Both
« Previous Day
Next Day »
Daily Weekly Monthly Yearly Custom
  High: Low: Average:
Temperature: 58.2 °F 42.4 °F 49.2 °F
Dew Point: 42.2 °F 32.4 °F 35.3 °F
Humidity: 74% 46% 59%
Wind Speed: 13.0mph 0.0mph 3.4mph
Wind Gust: 15.0mph - -
Wind- - ENE
Pressure: 30.11 in 30.03 in -
Precipitation: 0.00 in    
Historical Graphs
 
 
Tabular Data for May 10, 2017
Time Temperature Dew Point Pressure Wind Wind Speed Wind Gust Humidity Rainfall Rate (Hourly)
00:04 46.2 °F 35.1 °F 30.04 in ENE 5.0 mph 8.0 mph 65% 0.00 in
00:09 46.1 °F 34.6 °F 30.04 in NE 3.0 mph 8.0 mph 64% 0.00 in
00:14 45.9 °F 34.4 °F 30.04 in East 3.0 mph 10.0 mph 64% 0.00 in
00:19 45.8 °F 34.3 °F 30.04 in NE 4.0 mph 8.0 mph 64% 0.00 in
00:24 45.7 °F 34.6 °F 30.04 in ENE 3.0 mph 8.0 mph 65% 0.00 in
00:29 45.6 °F 34.9 °F 30.04 in ENE 3.0 mph 7.0 mph 66% 0.00 in
00:34 45.5 °F 34.8 °F 30.05 in East 2.0 mph 7.0 mph 66% 0.00 in
00:39 45.4 °F 34.7 °F 30.05 in East 5.0 mph 8.0 mph 66% 0.00 in
00:44 45.2 °F 34.1 °F 30.05 in ENE 3.0 mph 9.0 mph 65% 0.00 in
00:49 45.2 °F 33.7 °F 30.05 in East 2.0 mph 7.0 mph 64% 0.00 in
00:54 45.1 °F 33.6 °F 30.05 in East 3.0 mph 7.0 mph 64% 0.00 in
00:59 45.1 °F 33.6 °F 30.05 in East 3.0 mph 7.0 mph 64% 0.00 in
01:04 45.1 °F 34.0 °F 30.05 in East 3.0 mph 7.0 mph 65% 0.00 in
01:09 45.1 °F 34.0 °F 30.05 in ENE 2.0 mph 7.0 mph 65% 0.00 in
01:14 45.0 °F 33.9 °F 30.05 in ENE 3.0 mph 8.0 mph 65% 0.00 in
01:19 44.9 °F 34.2 °F 30.05 in ENE 4.0 mph 8.0 mph 66% 0.00 in
01:24 44.9 °F 34.2 °F 30.04 in ENE 3.0 mph 9.0 mph 66% 0.00 in
01:29 44.8 °F 34.1 °F 30.04 in ENE 3.0 mph 9.0 mph 66% 0.00 in
01:34 44.8 °F 34.1 °F 30.05 in ENE 3.0 mph 7.0 mph 66% 0.00 in
01:39 44.7 °F 34.0 °F 30.05 in ENE 3.0 mph 7.0 mph 66% 0.00 in
01:44 44.6 °F 33.9 °F 30.05 in ENE 2.0 mph 9.0 mph 66% 0.00 in
01:49 44.6 °F 33.9 °F 30.05 in ENE 3.0 mph 9.0 mph 66% 0.00 in
01:54 44.5 °F 33.8 °F 30.04 in East 7.0 mph 10.0 mph 66% 0.00 in
01:59 44.4 °F 33.7 °F 30.04 in ENE 4.0 mph 10.0 mph 66% 0.00 in
02:04 44.4 °F 33.7 °F 30.04 in NE 2.0 mph 6.0 mph 66% 0.00 in
02:09 44.2 °F 33.6 °F 30.04 in ENE 3.0 mph 8.0 mph 66% 0.00 in
02:14 44.1 °F 33.8 °F 30.04 in East 5.0 mph 7.0 mph 67% 0.00 in
02:19 43.8 °F 33.6 °F 30.03 in ENE 3.0 mph 7.0 mph 67% 0.00 in
02:24 43.6 °F 33.4 °F 30.03 in ENE 3.0 mph 5.0 mph 67% 0.00 in
02:29 43.5 °F 33.6 °F 30.03 in East 3.0 mph 5.0 mph 68% 0.00 in
02:34 43.3 °F 33.4 °F 30.03 in NE 1.0 mph 6.0 mph 68% 0.00 in
02:39 43.3 °F 33.8 °F 30.03 in ENE 2.0 mph 7.0 mph 69% 0.00 in
02:44 43.2 °F 33.7 °F 30.03 in ENE 2.0 mph 6.0 mph 69% 0.00 in
02:49 43.2 °F 33.7 °F 30.03 in ENE 3.0 mph 7.0 mph 69% 0.00 in
02:54 43.1 °F 34.0 °F 30.03 in East 3.0 mph 8.0 mph 70% 0.00 in
02:59 43.0 °F 33.9 °F 30.03 in East 2.0 mph 8.0 mph 70% 0.00 in
03:04 42.9 °F 33.8 °F 30.03 in ENE 1.0 mph 5.0 mph 70% 0.00 in
03:09 43.0 °F 33.9 °F 30.03 in ENE 2.0 mph 5.0 mph 70% 0.00 in
03:14 43.0 °F 34.2 °F 30.04 in NE 4.0 mph 4.0 mph 71% 0.00 in
03:19 42.9 °F 34.1 °F 30.04 in ENE 2.0 mph 5.0 mph 71% 0.00 in
03:24 42.9 °F 34.1 °F 30.04 in ENE 2.0 mph 4.0 mph 71% 0.00 in
03:29 42.9 °F 34.1 °F 30.04 in NE 2.0 mph 4.0 mph 71% 0.00 in
03:34 42.8 °F 34.0 °F 30.04 in ENE 2.0 mph 5.0 mph 71% 0.00 in
03:39 42.7 °F 33.9 °F 30.05 in NE 1.0 mph 5.0 mph 71% 0.00 in
03:44 42.6 °F 34.2 °F 30.05 in ENE 4.0 mph 5.0 mph 72% 0.00 in
03:49 42.6 °F 34.2 °F 30.05 in NE 3.0 mph 7.0 mph 72% 0.00 in
03:54 42.8 °F 34.4 °F 30.05 in NE 4.0 mph 7.0 mph 72% 0.00 in
03:59 42.7 °F 34.3 °F 30.05 in NE 2.0 mph 5.0 mph 72% 0.00 in
04:04 42.8 °F 34.4 °F 30.05 in ENE 2.0 mph 5.0 mph 72% 0.00 in
04:09 42.8 °F 34.4 °F 30.06 in ENE 3.0 mph 6.0 mph 72% 0.00 in
04:14 42.9 °F 34.8 °F 30.06 in ENE 5.0 mph 7.0 mph 73% 0.00 in
04:19 42.9 °F 34.8 °F 30.06 in ENE 1.0 mph 5.0 mph 73% 0.00 in
04:24 42.8 °F 34.7 °F 30.06 in ENE 3.0 mph 4.0 mph 73% 0.00 in
04:29 42.8 °F 34.4 °F 30.06 in ENE 1.0 mph 6.0 mph 72% 0.00 in
04:34 42.8 °F 34.4 °F 30.06 in East 5.0 mph 5.0 mph 72% 0.00 in
04:39 42.7 °F 34.3 °F 30.06 in East 1.0 mph 5.0 mph 72% 0.00 in
04:44 42.7 °F 34.3 °F 30.06 in East 1.0 mph 5.0 mph 72% 0.00 in
04:49 42.5 °F 34.1 °F 30.06 in ENE 2.0 mph 5.0 mph 72% 0.00 in
04:54 42.5 °F 34.1 °F 30.06 in NE 1.0 mph 5.0 mph 72% 0.00 in
04:59 42.5 °F 34.5 °F 30.06 in ENE 2.0 mph 4.0 mph 73% 0.00 in
05:04 42.5 °F 34.5 °F 30.06 in East 2.0 mph 5.0 mph 73% 0.00 in
05:09 42.5 °F 34.5 °F 30.06 in ENE 2.0 mph 5.0 mph 73% 0.00 in
05:14 42.4 °F 34.4 °F 30.06 in NE 2.0 mph 5.0 mph 73% 0.00 in
05:19 42.5 °F 34.5 °F 30.06 in East 3.0 mph 5.0 mph 73% 0.00 in
05:24 42.5 °F 34.5 °F 30.06 in East 2.0 mph 5.0 mph 73% 0.00 in
05:29 42.4 °F 34.4 °F 30.07 in ENE 2.0 mph 3.0 mph 73% 0.00 in
05:34 42.4 °F 34.4 °F 30.07 in East 1.0 mph 3.0 mph 73% 0.00 in
05:39 42.5 °F 34.5 °F 30.07 in ENE 2.0 mph 5.0 mph 73% 0.00 in
05:44 42.4 °F 34.4 °F 30.07 in ENE 1.0 mph 4.0 mph 73% 0.00 in
05:49 42.5 °F 34.5 °F 30.07 in ENE 2.0 mph 4.0 mph 73% 0.00 in
05:54 42.5 °F 34.5 °F 30.07 in ENE 2.0 mph 5.0 mph 73% 0.00 in
05:59 42.5 °F 34.5 °F 30.07 in ENE 3.0 mph 6.0 mph 73% 0.00 in
06:04 42.6 °F 34.9 °F 30.08 in ENE 3.0 mph 7.0 mph 74% 0.00 in
06:09 42.5 °F 34.5 °F 30.08 in NE 4.0 mph 8.0 mph 73% 0.00 in
06:14 42.5 °F 34.8 °F 30.08 in NE 3.0 mph 8.0 mph 74% 0.00 in
06:19 42.5 °F 34.8 °F 30.08 in NE 3.0 mph 7.0 mph 74% 0.00 in
06:24 42.5 °F 34.8 °F 30.08 in NE 3.0 mph 8.0 mph 74% 0.00 in
06:29 42.5 °F 34.8 °F 30.08 in NE 3.0 mph 6.0 mph 74% 0.00 in
06:34 42.5 °F 34.8 °F 30.08 in ENE 2.0 mph 9.0 mph 74% 0.00 in
06:39 42.7 °F 35.0 °F 30.09 in NE 4.0 mph 8.0 mph 74% 0.00 in
06:44 42.7 °F 35.0 °F 30.09 in ENE 7.0 mph 8.0 mph 74% 0.00 in
06:49 42.9 °F 35.2 °F 30.09 in Calm   7.0 mph 74% 0.00 in
06:54 43.0 °F 35.3 °F 30.09 in ENE 4.0 mph 9.0 mph 74% 0.00 in
06:59 43.0 °F 34.9 °F 30.09 in ENE 4.0 mph 9.0 mph 73% 0.00 in
07:04 43.1 °F 35.0 °F 30.09 in ENE 4.0 mph 8.0 mph 73% 0.00 in
07:09 43.3 °F 35.2 °F 30.09 in ENE 4.0 mph 8.0 mph 73% 0.00 in
07:14 43.5 °F 35.4 °F 30.09 in NE 5.0 mph 8.0 mph 73% 0.00 in
07:19 43.6 °F 35.5 °F 30.09 in ENE 4.0 mph 8.0 mph 73% 0.00 in
07:24 43.9 °F 35.5 °F 30.09 in ENE 4.0 mph 7.0 mph 72% 0.00 in
07:29 43.9 °F 35.1 °F 30.09 in ENE 4.0 mph 7.0 mph 71% 0.00 in
07:34 44.0 °F 35.2 °F 30.09 in ENE 2.0 mph 5.0 mph 71% 0.00 in
07:39 44.0 °F 35.2 °F 30.09 in ESE 3.0 mph 6.0 mph 71% 0.00 in
07:44 44.1 °F 35.6 °F 30.10 in ENE 2.0 mph 4.0 mph 72% 0.00 in
07:49 44.2 °F 35.4 °F 30.10 in ENE 1.0 mph 4.0 mph 71% 0.00 in
07:54 44.4 °F 35.6 °F 30.10 in ENE 2.0 mph 5.0 mph 71% 0.00 in
07:59 44.5 °F 35.3 °F 30.10 in ENE 2.0 mph 5.0 mph 70% 0.00 in
08:04 44.7 °F 35.5 °F 30.10 in ENE 2.0 mph 5.0 mph 70% 0.00 in
08:09 44.9 °F 35.3 °F 30.10 in ENE 3.0 mph 5.0 mph 69% 0.00 in
08:14 45.5 °F 36.3 °F 30.10 in ENE 3.0 mph 5.0 mph 70% 0.00 in
08:19 46.5 °F 36.9 °F 30.10 in NE 4.0 mph 4.0 mph 69% 0.00 in
08:24 47.3 °F 36.9 °F 30.10 in NNE 4.0 mph 5.0 mph 67% 0.00 in
08:29 47.5 °F 35.9 °F 30.10 in NE 5.0 mph 7.0 mph 64% 0.00 in
08:34 47.9 °F 36.3 °F 30.10 in ENE 2.0 mph 5.0 mph 64% 0.00 in
08:39 48.1 °F 35.7 °F 30.10 in NNE 4.0 mph 9.0 mph 62% 0.00 in
08:44 48.5 °F 36.5 °F 30.10 in NE 2.0 mph 9.0 mph 63% 0.00 in
08:49 49.3 °F 37.2 °F 30.10 in ENE 5.0 mph 7.0 mph 63% 0.00 in
08:54 49.2 °F 35.9 °F 30.10 in ENE 2.0 mph 7.0 mph 60% 0.00 in
08:59 49.6 °F 35.4 °F 30.10 in ENE 2.0 mph 6.0 mph 58% 0.00 in
09:04 50.4 °F 36.2 °F 30.10 in NE 2.0 mph 9.0 mph 58% 0.00 in
09:09 50.3 °F 36.5 °F 30.10 in NE 3.0 mph 9.0 mph 59% 0.00 in
09:14 50.2 °F 35.5 °F 30.10 in NE 7.0 mph 9.0 mph 57% 0.00 in
09:19 49.9 °F 35.3 °F 30.10 in ESE 4.0 mph 8.0 mph 57% 0.00 in
09:24 50.1 °F 35.9 °F 30.10 in NE 5.0 mph 8.0 mph 58% 0.00 in
09:29 50.4 °F 37.0 °F 30.10 in NE 2.0 mph 8.0 mph 60% 0.00 in
09:34 50.2 °F 35.5 °F 30.10 in ENE 2.0 mph 7.0 mph 57% 0.00 in
09:39 50.2 °F 34.2 °F 30.11 in NE 3.0 mph 9.0 mph 54% 0.00 in
09:44 50.8 °F 36.1 °F 30.10 in NNE 1.0 mph 4.0 mph 57% 0.00 in
09:49 50.7 °F 34.6 °F 30.10 in East 6.0 mph 9.0 mph 54% 0.00 in
09:54 50.8 °F 35.2 °F 30.10 in ENE 4.0 mph 9.0 mph 55% 0.00 in
09:59 51.2 °F 36.0 °F 30.10 in NE 3.0 mph 9.0 mph 56% 0.00 in
10:04 51.8 °F 37.0 °F 30.10 in NE 3.0 mph 8.0 mph 57% 0.00 in
10:09 52.6 °F 37.3 °F 30.10 in NE 2.0 mph 7.0 mph 56% 0.00 in
10:14 52.2 °F 37.0 °F 30.10 in NE 2.0 mph 7.0 mph 56% 0.00 in
10:19 51.8 °F 36.6 °F 30.10 in ENE 2.0 mph 10.0 mph 56% 0.00 in
10:24 51.8 °F 36.6 °F 30.09 in ENE 3.0 mph 10.0 mph 56% 0.00 in
10:29 51.6 °F 35.9 °F 30.09 in ENE 3.0 mph 7.0 mph 55% 0.00 in
10:34 51.3 °F 35.7 °F 30.09 in NE 3.0 mph 9.0 mph 55% 0.00 in
10:39 50.9 °F 36.2 °F 30.09 in NE 4.0 mph 10.0 mph 57% 0.00 in
10:44 51.0 °F 34.9 °F 30.09 in NE 5.0 mph 8.0 mph 54% 0.00 in
10:49 51.0 °F 35.8 °F 30.09 in ENE 9.0 mph 11.0 mph 56% 0.00 in
10:54 51.1 °F 35.0 °F 30.09 in ENE 5.0 mph 11.0 mph 54% 0.00 in
10:59 51.3 °F 35.2 °F 30.09 in NE 5.0 mph 10.0 mph 54% 0.00 in
11:04 51.3 °F 35.2 °F 30.09 in NE 3.0 mph 8.0 mph 54% 0.00 in
11:09 51.8 °F 34.7 °F 30.09 in NE 9.0 mph 10.0 mph 52% 0.00 in
11:14 51.4 °F 36.2 °F 30.09 in NE 2.0 mph 9.0 mph 56% 0.00 in
11:19 51.4 °F 35.3 °F 30.09 in ENE 5.0 mph 8.0 mph 54% 0.00 in
11:24 51.7 °F 36.9 °F 30.09 in NE 3.0 mph 8.0 mph 57% 0.00 in
11:29 52.0 °F 36.3 °F 30.09 in NE 3.0 mph 8.0 mph 55% 0.00 in
11:34 51.7 °F 35.1 °F 30.09 in NE 3.0 mph 7.0 mph 53% 0.00 in
11:39 51.7 °F 35.1 °F 30.09 in NE 4.0 mph 9.0 mph 53% 0.00 in
11:44 51.7 °F 34.6 °F 30.09 in NE 4.0 mph 10.0 mph 52% 0.00 in
11:49 52.3 °F 37.1 °F 30.09 in NE 6.0 mph 7.0 mph 56% 0.00 in
11:54 52.4 °F 34.8 °F 30.09 in NE 3.0 mph 9.0 mph 51% 0.00 in
11:59 53.4 °F 39.0 °F 30.09 in NE 3.0 mph 4.0 mph 58% 0.00 in
12:04 53.5 °F 37.7 °F 30.09 in NE 4.0 mph 7.0 mph 55% 0.00 in
12:09 54.8 °F 38.9 °F 30.09 in NE 6.0 mph 8.0 mph 55% 0.00 in
12:14 55.2 °F 38.8 °F 30.09 in NNE 4.0 mph 7.0 mph 54% 0.00 in
12:19 54.1 °F 37.3 °F 30.09 in North 2.0 mph 5.0 mph 53% 0.00 in
12:24 53.5 °F 36.3 °F 30.09 in NNE 3.0 mph 8.0 mph 52% 0.00 in
12:29 53.5 °F 37.3 °F 30.10 in ENE 3.0 mph 8.0 mph 54% 0.00 in
12:34 53.3 °F 36.6 °F 30.09 in NNE 3.0 mph 9.0 mph 53% 0.00 in
12:39 54.2 °F 37.9 °F 30.09 in ENE 4.0 mph 5.0 mph 54% 0.00 in
12:44 55.5 °F 38.1 °F 30.09 in NNW 3.0 mph 5.0 mph 52% 0.00 in
12:49 55.0 °F 37.7 °F 30.09 in ENE 4.0 mph 5.0 mph 52% 0.00 in
12:54 54.6 °F 35.8 °F 30.09 in Calm   7.0 mph 49% 0.00 in
12:59 54.9 °F 36.6 °F 30.09 in North 3.0 mph 7.0 mph 50% 0.00 in
13:09 54.5 °F 35.7 °F 30.09 in NE 3.0 mph 10.0 mph 49% 0.00 in
13:14 56.1 °F 39.2 °F 30.09 in NE 3.0 mph 9.0 mph 53% 0.00 in
13:19 55.3 °F 37.5 °F 30.09 in NE 4.0 mph 9.0 mph 51% 0.00 in
13:24 55.5 °F 38.6 °F 30.09 in ENE 4.0 mph 10.0 mph 53% 0.00 in
13:29 54.7 °F 36.4 °F 30.08 in NE 2.0 mph 8.0 mph 50% 0.00 in
13:34 55.2 °F 37.9 °F 30.08 in ENE 2.0 mph 10.0 mph 52% 0.00 in
13:39 55.8 °F 38.9 °F 30.08 in NNE 3.0 mph 10.0 mph 53% 0.00 in
13:44 56.1 °F 39.2 °F 30.08 in North 6.0 mph 9.0 mph 53% 0.00 in
13:49 55.4 °F 37.1 °F 30.09 in NNE 5.0 mph 10.0 mph 50% 0.00 in
13:54 55.6 °F 37.2 °F 30.09 in North 4.0 mph 10.0 mph 50% 0.00 in
13:59 56.1 °F 39.2 °F 30.09 in North 2.0 mph 7.0 mph 53% 0.00 in
14:04 55.9 °F 38.5 °F 30.09 in NNE 2.0 mph 5.0 mph 52% 0.00 in
14:09 56.3 °F 39.9 °F 30.08 in East 6.0 mph 7.0 mph 54% 0.00 in
14:14 57.1 °F 40.1 °F 30.08 in North 2.0 mph 7.0 mph 53% 0.00 in
14:19 56.9 °F 38.4 °F 30.08 in NE 3.0 mph 7.0 mph 50% 0.00 in
14:24 57.8 °F 40.3 °F 30.08 in NNE 3.0 mph 9.0 mph 52% 0.00 in
14:29 57.1 °F 38.6 °F 30.08 in NE 4.0 mph 9.0 mph 50% 0.00 in
14:34 56.6 °F 39.2 °F 30.08 in NE 6.0 mph 12.0 mph 52% 0.00 in
14:39 56.6 °F 38.7 °F 30.08 in ENE 5.0 mph 12.0 mph 51% 0.00 in
14:44 57.3 °F 40.3 °F 30.08 in ENE 2.0 mph 8.0 mph 53% 0.00 in
14:49 57.2 °F 40.2 °F 30.08 in ENE 4.0 mph 14.0 mph 53% 0.00 in
14:54 57.6 °F 39.1 °F 30.08 in NE 3.0 mph 14.0 mph 50% 0.00 in
14:59 57.7 °F 40.2 °F 30.08 in NNW 6.0 mph 13.0 mph 52% 0.00 in
15:04 58.0 °F 38.9 °F 30.08 in NE 4.0 mph 7.0 mph 49% 0.00 in
15:09 57.7 °F 39.7 °F 30.08 in ENE 7.0 mph 8.0 mph 51% 0.00 in
15:14 57.7 °F 41.2 °F 30.07 in ENE 3.0 mph 12.0 mph 54% 0.00 in
15:19 57.5 °F 39.0 °F 30.07 in NE 5.0 mph 12.0 mph 50% 0.00 in
15:24 57.5 °F 40.5 °F 30.07 in NE 4.0 mph 12.0 mph 53% 0.00 in
15:29 58.2 °F 40.6 °F 30.07 in NE 4.0 mph 13.0 mph 52% 0.00 in
15:34 57.5 °F 41.0 °F 30.07 in NE 5.0 mph 13.0 mph 54% 0.00 in
15:39 57.2 °F 39.7 °F 30.07 in NE 6.0 mph 15.0 mph 52% 0.00 in
15:44 57.8 °F 42.2 °F 30.07 in NNE 4.0 mph 13.0 mph 56% 0.00 in
15:49 58.0 °F 40.5 °F 30.07 in NE 5.0 mph 13.0 mph 52% 0.00 in
15:54 57.9 °F 39.9 °F 30.07 in NE 4.0 mph 11.0 mph 51% 0.00 in
15:59 57.8 °F 39.8 °F 30.07 in NNE 3.0 mph 10.0 mph 51% 0.00 in
16:04 57.6 °F 39.6 °F 30.07 in North 1.0 mph 8.0 mph 51% 0.00 in
16:09 57.9 °F 39.4 °F 30.07 in NNW 2.0 mph 9.0 mph 50% 0.00 in
16:14 57.8 °F 38.8 °F 30.07 in NNE 4.0 mph 11.0 mph 49% 0.00 in
16:19 57.1 °F 37.0 °F 30.07 in NNE 4.0 mph 11.0 mph 47% 0.00 in
16:24 57.1 °F 37.0 °F 30.07 in NE 3.0 mph 6.0 mph 47% 0.00 in
16:29 57.1 °F 37.6 °F 30.07 in NE 8.0 mph 12.0 mph 48% 0.00 in
16:34 57.3 °F 36.7 °F 30.08 in North 4.0 mph 9.0 mph 46% 0.00 in
16:39 57.1 °F 37.6 °F 30.08 in NNE 6.0 mph 7.0 mph 48% 0.00 in
16:44 56.4 °F 36.4 °F 30.08 in NNE 4.0 mph 8.0 mph 47% 0.00 in
16:49 56.3 °F 35.8 °F 30.08 in NNE 5.0 mph 11.0 mph 46% 0.00 in
16:54 56.9 °F 37.4 °F 30.08 in NNE 5.0 mph 13.0 mph 48% 0.00 in
16:59 56.9 °F 37.9 °F 30.08 in NE 5.0 mph 13.0 mph 49% 0.00 in
17:04 56.8 °F 37.3 °F 30.08 in NNE 5.0 mph 12.0 mph 48% 0.00 in
17:09 56.4 °F 36.9 °F 30.08 in NE 4.0 mph 10.0 mph 48% 0.00 in
17:14 55.5 °F 35.6 °F 30.08 in NNE 4.0 mph 11.0 mph 47% 0.00 in
17:19 55.0 °F 35.1 °F 30.08 in NE 4.0 mph 11.0 mph 47% 0.00 in
17:24 54.9 °F 35.6 °F 30.08 in North 3.0 mph 6.0 mph 48% 0.00 in
17:29 55.1 °F 35.2 °F 30.08 in NE 13.0 mph 15.0 mph 47% 0.00 in
17:34 55.0 °F 35.1 °F 30.08 in NE 5.0 mph 13.0 mph 47% 0.00 in
17:39 54.7 °F 35.4 °F 30.08 in NE 6.0 mph 14.0 mph 48% 0.00 in
17:44 55.1 °F 36.8 °F 30.08 in NE 3.0 mph 8.0 mph 50% 0.00 in
17:49 54.9 °F 36.1 °F 30.07 in NE 5.0 mph 11.0 mph 49% 0.00 in
17:54 54.8 °F 37.0 °F 30.08 in NE 5.0 mph 13.0 mph 51% 0.00 in
17:59 54.4 °F 35.6 °F 30.08 in NE 5.0 mph 13.0 mph 49% 0.00 in
18:04 54.4 °F 35.1 °F 30.08 in NE 5.0 mph 11.0 mph 48% 0.00 in
18:09 54.0 °F 34.2 °F 30.08 in NE 6.0 mph 14.0 mph 47% 0.00 in
18:14 53.4 °F 34.2 °F 30.08 in NE 5.0 mph 13.0 mph 48% 0.00 in
18:19 53.0 °F 34.3 °F 30.08 in NE 6.0 mph 13.0 mph 49% 0.00 in
18:24 53.1 °F 33.9 °F 30.08 in NE 2.0 mph 12.0 mph 48% 0.00 in
18:29 53.1 °F 34.4 °F 30.08 in NE 6.0 mph 10.0 mph 49% 0.00 in
18:34 53.2 °F 35.5 °F 30.08 in NE 3.0 mph 8.0 mph 51% 0.00 in
18:39 52.7 °F 33.5 °F 30.08 in North 5.0 mph 10.0 mph 48% 0.00 in
18:44 52.8 °F 34.2 °F 30.08 in NE 4.0 mph 10.0 mph 49% 0.00 in
18:49 52.5 °F 33.9 °F 30.08 in NNE 3.0 mph 7.0 mph 49% 0.00 in
18:54 52.1 °F 33.0 °F 30.08 in NE 4.0 mph 9.0 mph 48% 0.00 in
18:59 52.0 °F 33.9 °F 30.08 in NE 4.0 mph 9.0 mph 50% 0.00 in
19:04 51.8 °F 34.2 °F 30.08 in NNE 3.0 mph 6.0 mph 51% 0.00 in
19:09 51.7 °F 34.6 °F 30.08 in NE 2.0 mph 4.0 mph 52% 0.00 in
19:14 51.6 °F 33.6 °F 30.08 in NE 3.0 mph 8.0 mph 50% 0.00 in
19:19 51.6 °F 33.0 °F 30.07 in NE 4.0 mph 9.0 mph 49% 0.00 in
19:24 51.6 °F 33.0 °F 30.07 in ENE 2.0 mph 8.0 mph 49% 0.00 in
19:29 51.5 °F 33.5 °F 30.07 in East 5.0 mph 10.0 mph 50% 0.00 in
19:34 51.4 °F 33.4 °F 30.07 in NE 6.0 mph 9.0 mph 50% 0.00 in
19:39 51.1 °F 33.1 °F 30.07 in ENE 6.0 mph 11.0 mph 50% 0.00 in
19:44 50.9 °F 33.4 °F 30.07 in NE 5.0 mph 11.0 mph 51% 0.00 in
19:49 50.7 °F 33.2 °F 30.07 in NE 3.0 mph 7.0 mph 51% 0.00 in
19:54 50.6 °F 33.1 °F 30.07 in NNE 3.0 mph 7.0 mph 51% 0.00 in
19:59 50.5 °F 33.5 °F 30.07 in NNE 3.0 mph 11.0 mph 52% 0.00 in
20:04 50.3 °F 33.8 °F 30.07 in NE 3.0 mph 7.0 mph 53% 0.00 in
20:09 50.2 °F 33.2 °F 30.07 in NE 8.0 mph 8.0 mph 52% 0.00 in
20:14 50.2 °F 33.2 °F 30.07 in NE 4.0 mph 9.0 mph 52% 0.00 in
20:19 50.1 °F 33.6 °F 30.06 in NE 4.0 mph 9.0 mph 53% 0.00 in
20:24 50.1 °F 33.6 °F 30.06 in NE 4.0 mph 9.0 mph 53% 0.00 in
20:29 50.0 °F 34.0 °F 30.06 in NE 4.0 mph 9.0 mph 54% 0.00 in
20:34 49.9 °F 33.9 °F 30.07 in NE 5.0 mph 11.0 mph 54% 0.00 in
20:39 49.8 °F 33.8 °F 30.07 in ENE 5.0 mph 9.0 mph 54% 0.00 in
20:44 49.7 °F 33.2 °F 30.06 in ENE 4.0 mph 9.0 mph 53% 0.00 in
20:49 49.6 °F 33.6 °F 30.07 in NE 3.0 mph 10.0 mph 54% 0.00 in
20:54 49.5 °F 33.1 °F 30.07 in ENE 5.0 mph 9.0 mph 53% 0.00 in
20:59 49.4 °F 33.4 °F 30.07 in NE 4.0 mph 8.0 mph 54% 0.00 in
21:04 49.3 °F 33.3 °F 30.07 in NE 6.0 mph 10.0 mph 54% 0.00 in
21:09 49.2 °F 33.7 °F 30.08 in Calm   8.0 mph 55% 0.00 in
21:14 49.1 °F 33.6 °F 30.07 in ENE 3.0 mph 8.0 mph 55% 0.00 in
21:19 49.0 °F 33.1 °F 30.07 in ENE 4.0 mph 9.0 mph 54% 0.00 in
21:24 48.9 °F 33.4 °F 30.07 in ENE 4.0 mph 9.0 mph 55% 0.00 in
21:29 48.8 °F 32.9 °F 30.07 in ENE 4.0 mph 10.0 mph 54% 0.00 in
21:34 48.7 °F 32.8 °F 30.07 in ENE 4.0 mph 10.0 mph 54% 0.00 in
21:39 48.7 °F 33.2 °F 30.07 in ENE 3.0 mph 6.0 mph 55% 0.00 in
21:44 48.5 °F 33.1 °F 30.08 in ENE 3.0 mph 7.0 mph 55% 0.00 in
21:49 48.3 °F 32.9 °F 30.08 in East 2.0 mph 7.0 mph 55% 0.00 in
21:54 48.1 °F 32.7 °F 30.08 in East 6.0 mph 6.0 mph 55% 0.00 in
21:59 48.0 °F 33.0 °F 30.08 in ENE 5.0 mph 7.0 mph 56% 0.00 in
22:04 47.9 °F 32.9 °F 30.07 in ENE 3.0 mph 7.0 mph 56% 0.00 in
22:09 47.8 °F 32.4 °F 30.07 in NE 4.0 mph 8.0 mph 55% 0.00 in
22:14 47.6 °F 32.7 °F 30.07 in ENE 3.0 mph 8.0 mph 56% 0.00 in
22:19 47.4 °F 32.5 °F 30.07 in ENE 3.0 mph 7.0 mph 56% 0.00 in
22:24 47.2 °F 32.7 °F 30.07 in ENE 2.0 mph 6.0 mph 57% 0.00 in
22:29 47.1 °F 32.6 °F 30.07 in East 2.0 mph 6.0 mph 57% 0.00 in
22:34 47.0 °F 32.5 °F 30.07 in ENE 2.0 mph 7.0 mph 57% 0.00 in
22:39 46.8 °F 32.8 °F 30.06 in ENE 3.0 mph 6.0 mph 58% 0.00 in
22:44 46.7 °F 32.7 °F 30.07 in East 2.0 mph 7.0 mph 58% 0.00 in
22:49 46.6 °F 32.6 °F 30.06 in ENE 2.0 mph 7.0 mph 58% 0.00 in
22:54 46.4 °F 32.8 °F 30.07 in East 2.0 mph 7.0 mph 59% 0.00 in
22:59 46.3 °F 32.7 °F 30.08 in Calm   5.0 mph 59% 0.00 in
23:04 46.2 °F 33.1 °F 30.08 in Calm   5.0 mph 60% 0.00 in
23:09 46.1 °F 33.0 °F 30.08 in ESE 1.0 mph 5.0 mph 60% 0.00 in
23:14 45.9 °F 33.2 °F 30.08 in East 1.0 mph 4.0 mph 61% 0.00 in
23:19 45.7 °F 33.0 °F 30.08 in ENE 2.0 mph 5.0 mph 61% 0.00 in
23:24 45.5 °F 33.2 °F 30.08 in ENE 1.0 mph 4.0 mph 62% 0.00 in
23:29 45.4 °F 33.1 °F 30.07 in NE 2.0 mph 5.0 mph 62% 0.00 in
23:34 45.3 °F 33.4 °F 30.07 in NE 3.0 mph 6.0 mph 63% 0.00 in
23:39 45.2 °F 33.3 °F 30.07 in ENE 2.0 mph 5.0 mph 63% 0.00 in
23:44 45.2 °F 33.3 °F 30.07 in ENE 2.0 mph 6.0 mph 63% 0.00 in
23:49 45.1 °F 33.2 °F 30.07 in ENE 2.0 mph 6.0 mph 63% 0.00 in
23:54 45.0 °F 33.2 °F 30.07 in East 2.0 mph 5.0 mph 63% 0.00 in
23:59 45.1 °F 33.6 °F 30.07 in East 2.0 mph 5.0 mph 64% 0.00 in
Buffalo, New York, USA
Compliments of Weather Underground - 2.5 mb